Skip Page Navigation
NASA JPL Caltech
NASA Logo - Jet Propulsion Laboratory + View the NASA Portal
+ Near-Earth Object (NEO) Program
Search JPL
JPL Home Earth Solar System Stars & Galaxies Technology
JPL Solar System Dynamics
BODIES ORBITS EPHEMERIDES TOOLS PHYSICAL DATA DISCOVERY FAQ SITE MAP
JPL Small-Body Database Browser
Search: [ help ]  
8567 (1996 HW1)
Classification: Amor [NEO]          SPK-ID: 2008567
Ephemeris | Orbit Diagram | Orbital Elements | Physical Parameters | Discovery Circumstances | Close-Approach Data ]

[ hide orbit diagram ]
Orbit Diagram
Note: Make sure you have Java enabled on your browser to see the applet. This applet is provided as a 3D orbit visualization tool. The applet was implemented using 2-body methods, and hence should not be used for determining accurate long-term trajectories (over several years or decades) or planetary encounter circumstances. For accurate long-term ephemerides, please instead use our Horizons system.
Orbit Viewer

Additional Notes: the orbits shown in the applet are color coded. The planets are white lines, and the asteroid/comet is a blue line. The bright white line indicates the portion of the orbit that is above the ecliptic plane, and the darker portion is below the ecliptic plane. Likewise for the asteroid/comet orbit, the light blue indicates the portion above the ecliptic plane, and the dark blue the portion below the ecliptic plane.

Orbit Viewer applet originally written and kindly provided by Osamu Ajiki (AstroArts), and further modified by Ron Baalke (JPL).


Orbital Elements at Epoch 2456400.5 (2013-Apr-18.0) TDB
Reference: JPL 297 (heliocentric ecliptic J2000)
 Element Value Uncertainty (1-sigma)   Units 
e .4487968565036424 6.215e-09  
a 2.045482669875698 1.0678e-08 AU
q 1.127476477602807 1.1122e-08 AU
i 8.437975111954689 2.4691e-06 deg
node 177.1782820017382 7.6731e-06 deg
peri 177.0799260454382 1.1063e-05 deg
M 204.9137024353576 4.3442e-06 deg
tp 2456860.823408823665
(2014-Jul-22.32340882)
1.6359e-05 JED
period 1068.543319292579
2.93
8.3668e-06
2.291e-08
d
yr
n .3369072582273364 2.638e-09 deg/d
Q 2.963488862148589 1.547e-08 AU
  Orbit Determination Parameters
   # obs. used (total)      2736  
   # delay obs. used      6  
   # Doppler obs. used      6  
   data-arc span      21143 days (57.89 yr)  
   first obs. used      1955-05-23  
   last obs. used      2013-04-11  
   planetary ephem.      DE405  
   SB-pert. ephem.      SB405-CPV-2  
   condition code      0  
   fit RMS      .40628  
   data source      ORB  
   producer      Otto Matic  
   solution date      2013-Apr-29 13:31:46  

Additional Information
 Earth MOID = .122741 AU 
 T_jup = 3.652 
[ show covariance matrix ]

Ephemeris | Orbit Diagram | Orbital Elements | Physical Parameters | Discovery Circumstances | Close-Approach Data ]

Physical Parameter Table
Parameter Symbol Value Units Sigma Reference Notes
absolute magnitude H 15.3 mag n/a PDS3 (MPC 31512)  
rotation period rot_per 8.7573 h n/a Asteroid Lightcurve DataBase (Rev. 2013-May-01) Published Reference List:
[Pravec, P.; Wolf, M.; Sarounova, L. (2005) http://www.asu.cas.cz/~ppravec/neo.htm]
[Higgins, D.J.; Pravec, P.; Kusnirak, P.; Masi, G.; et al. (2006) Minor Planet Bul. 33, 8-10.]
[Benishek, V.; Protitch-Benishek, V. (2009) Minor Planet Bul. 36, 35-37.]
[Magri, C.; Howell, E.S.; Nolan, M.; Taylor, P.A.; et al. (2011) Icarus 214, 210-227.]
[Hamanowa, H.; Hamanowa, H. (2011) http://www2.ocn.ne.jp/~hamaten/astlcdata.htm]
[Skiff, B.A.; Bowell, E.; Koehn, B.W.; Sanborn, J.J.; McLelland, K.P.; Warner, B.D. (2012) Minor Planet Bul. 39, 111-130.]
[Skiff, B.A.; Bowell, E.; Koehn, B.W.; Sanborn, J.J.; McLelland, K.P.; Warner, B.D. (2012) Minor Planet Bul. 39, 111-130.]
[Skiff, B.A.; Bowell, E.; Koehn, B.W.; Sanborn, J.J.; McLelland, K.P.; Warner, B.D. (2012) Minor Planet Bul. 39, 111-130.]
[Skiff, B.A.; Bowell, E.; Koehn, B.W.; Sanborn, J.J.; McLelland, K.P.; Warner, B.D. (2012) Minor Planet Bul. 39, 111-130.]
[Skiff, B.A.; Bowell, E.; Koehn, B.W.; Sanborn, J.J.; McLelland, K.P.; Warner, B.D. (2012) Minor Planet Bul. 39, 111-130.]
[Skiff, B.A.; Bowell, E.; Koehn, B.W.; Sanborn, J.J.; McLelland, K.P.; Warner, B.D. (2012) Minor Planet Bul. 39, 111-130.]

8567 (1996 HW1)          Discovered 1996-Apr-23 by Spacewatch at Kitt Peak (691)
Reference: 19980313/Numbers.arcLast Updated: 2004-04-19

[ show close-approach data ]
Ephemeris | Orbit Diagram | Orbital Elements | Physical Parameters | Discovery Circumstances | Close-Approach Data ]
ABOUT SSD CREDITS/AWARDS PRIVACY/COPYRIGHT GLOSSARY LINKS
FirstGov 2013-May-18 20:58 UT
(server date/time)  
NASA Home Page
Site Manager:   Donald K. Yeomans
Webmaster  Alan B. Chamberlin